"Pseudo-MPEC" for CEP9TG2

Created 2026 Jun 17 18:35:03 UT using Find_Orb

Click here for an explanation of pseudo-MPECs

 
 Astrometry: 
     CEP9TG2*1C2026 06 14.30189516 03 17.327+24 55 24.85   ~6E85 22.50GVNEOCPG96
     CEP9TG2 1C2026 06 14.30755216 03 17.932+24 55 20.86   ~6E85 22.56GVNEOCPG96
     CEP9TG2 1C2026 06 14.31320616 03 18.414+24 55 18.16   ~6E85 21.19GVNEOCPG96

Station data:
(G96) Mt. Lemmon Survey  (N32.442729 W110.788720)
   US/Arizona.  Observer E. J. Christensen. Measurers T. Beuden, V. F.
   Carvajal, D. Fay, J. B. Fazekas, D. C. Fuls, A. R. Gibbs, A. D. Grauer, H.
   Gröller, J. K. Hogan, R. A. Kowalski, S. M. Larson, G. J. Leonard, D.
   Rankin, R. L. Seaman, F. C. Shelly, K. W. Wierzchoś. 1.5-m reflector + 10K
   CCD.

Orbital elements:  CEP9TG2
   Perihelion 2026 Apr 22.184380 +/- 37.3 TT =  4:25:30.4 (JD 2461152.684380)
Epoch 2026 Jun 14.0 TT = JDT 2461205.5   Earth MOID: 0.0029      AutoNEOCP
M   5.289699341 +/- 27              (J2000 ecliptic)
n   0.100154071 +/- 0.211           Peri.  288.469647 +/- 90
a   4.592230128 +/- 6.45            Node   249.638093 +/- 53
e   0.84908472 +/- 0.259            Incl.   41.449876 +/- 12
P   9.84091                H 23.54  G  0.15   U 11.7  SR
q 0.693037691 +/- 0.252    Q 8.491422564 +/- 43.7
From 3 observations 2026 June 14 (16.3 min); mean residual 0".35
Residuals in arcseconds: 
260614 G96  .28-  .22+    260614 G96  .56+  .43-    260614 G96  .28-  .22+    

Ephemerides (geocentric):
Date (UTC) HH   RA             Dec           delta  r     elong  mag " sig PA
---- --------  ------------   ------------  ------ ------ -----  --- --------
2026 06 17 19  16 08 30.013   +24 24 02.18  .29274 1.2146 126.9 22.9  22d  71
2026 06 17 20  16 08 33.070   +24 23 40.14  .29350 1.2152 126.9 22.9  23d  71
2026 06 17 21  16 08 36.115   +24 23 18.11  .29426 1.2157 126.9 22.9  24d  71
2026 06 17 22  16 08 39.149   +24 22 56.08  .29501 1.2162 126.9 22.9  24d  71
2026 06 17 23  16 08 42.170   +24 22 34.06  .29577 1.2168 126.9 23.0  25d  71
2026 06 18 00  16 08 45.180   +24 22 12.05  .29652 1.2173 126.9 23.0  25d  71
2026 06 18 01  16 08 48.178   +24 21 50.04  .29728 1.2179 126.9 23.0  25d  71
2026 06 18 02  16 08 51.165   +24 21 28.03  .29804 1.2184 126.9 23.0  26d  71
2026 06 18 03  16 08 54.140   +24 21 06.03  .29879 1.2189 126.9 23.0  26d  71
2026 06 18 04  16 08 57.105   +24 20 44.03  .29955 1.2195 126.9 23.0  26d  72
2026 06 18 05  16 09 00.058   +24 20 22.04  .30031 1.2200 126.9 23.0  26d  72
2026 06 18 06  16 09 03.000   +24 20 00.05  .30106 1.2205 126.8 23.0  27d  72
2026 06 18 07  16 09 05.931   +24 19 38.07  .30182 1.2211 126.8 23.0  27d  72
2026 06 18 08  16 09 08.852   +24 19 16.09  .30257 1.2216 126.8 23.0  27d  72
2026 06 18 09  16 09 11.761   +24 18 54.11  .30333 1.2222 126.8 23.0  27d  72
2026 06 18 10  16 09 14.660   +24 18 32.13  .30409 1.2227 126.8 23.0  27d  72
2026 06 18 11  16 09 17.549   +24 18 10.16  .30484 1.2232 126.8 23.0  27d  72
2026 06 18 12  16 09 20.426   +24 17 48.20  .30560 1.2238 126.8 23.0  27d  72
2026 06 18 13  16 09 23.294   +24 17 26.23  .30636 1.2243 126.8 23.0  27d  72
2026 06 18 14  16 09 26.151   +24 17 04.27  .30712 1.2248 126.8 23.0  28d  72
2026 06 18 15  16 09 28.998   +24 16 42.31  .30787 1.2254 126.8 23.0  28d  72
2026 06 18 16  16 09 31.835   +24 16 20.36  .30863 1.2259 126.8 23.1  28d  72
2026 06 18 17  16 09 34.662   +24 15 58.41  .30939 1.2264 126.7 23.1  28d  72
2026 06 18 18  16 09 37.479   +24 15 36.46  .31014 1.2270 126.7 23.1  28d  72
2026 06 18 19  16 09 40.286   +24 15 14.51  .31090 1.2275 126.7 23.1  28d  72
2026 06 18 20  16 09 43.083   +24 14 52.56  .31166 1.2281 126.7 23.1  28d  72
2026 06 18 21  16 09 45.870   +24 14 30.62  .31242 1.2286 126.7 23.1  28d  72
2026 06 18 22  16 09 48.648   +24 14 08.68  .31317 1.2291 126.7 23.1  28d  73
2026 06 18 23  16 09 51.416   +24 13 46.74  .31393 1.2297 126.7 23.1  28d  73
2026 06 19 00  16 09 54.175   +24 13 24.80  .31469 1.2302 126.7 23.1  28d  73
2026 06 19 01  16 09 56.924   +24 13 02.86  .31544 1.2307 126.7 23.1  28d  73
2026 06 19 02  16 09 59.665   +24 12 40.93  .31620 1.2313 126.7 23.1  28d  73
2026 06 19 03  16 10 02.395   +24 12 18.99  .31696 1.2318 126.7 23.1  28d  84
2026 06 19 04  16 10 05.117   +24 11 57.06  .31772 1.2324 126.6 23.1  28d  84
2026 06 19 05  16 10 07.830   +24 11 35.13  .31848 1.2329 126.6 23.1  28d  84
2026 06 19 06  16 10 10.533   +24 11 13.20  .31923 1.2334 126.6 23.1  28d  84
2026 06 19 07  16 10 13.228   +24 10 51.27  .31999 1.2340 126.6 23.1  28d  84
2026 06 19 08  16 10 15.914   +24 10 29.34  .32075 1.2345 126.6 23.1  28d  84
2026 06 19 09  16 10 18.591   +24 10 07.41  .32151 1.2350 126.6 23.2  28d  84
2026 06 19 10  16 10 21.259   +24 09 45.48  .32227 1.2356 126.6 23.2  28d  84
2026 06 19 11  16 10 23.919   +24 09 23.55  .32302 1.2361 126.6 23.2  28d  84
2026 06 19 12  16 10 26.570   +24 09 01.63  .32378 1.2366 126.6 23.2  28d  84
2026 06 19 13  16 10 29.213   +24 08 39.70  .32454 1.2372 126.6 23.2  28d  83
2026 06 19 14  16 10 31.847   +24 08 17.77  .32530 1.2377 126.6 23.2  28d  83
2026 06 19 15  16 10 34.472   +24 07 55.85  .32606 1.2383 126.5 23.2  28d  83
2026 06 19 16  16 10 37.090   +24 07 33.92  .32681 1.2388 126.5 23.2  28d  83
2026 06 19 17  16 10 39.699   +24 07 11.99  .32757 1.2393 126.5 23.2  28d  83
2026 06 19 18  16 10 42.300   +24 06 50.06  .32833 1.2399 126.5 23.2  29d  82